Weather Roundup
Issued by NWS Chicago, IL

Home | Current Version | Previous Version | Graphics & Text | Print | Product List | Glossary On
Versions: 1 2 3 4 5 6 7 8 9 10 11 12 13 14 15 16 17 18 19 20 21 22 23 24 25 26 27 28 29 30 31 32 33 34 35 36 37 38 39 40 41 42 43 44 45 46 47 48 49 50
000
NZUS59 KLOT 021800
HRRLOT

CHICAGO AREA WEATHER ROUNDUP
NATIONAL WEATHER SERVICE CHICAGO/ROMEOVILLE IL
100 PM CDT THU JUL 02 2015

NOTE: "FAIR" INDICATES FEW OR NO CLOUDS BELOW 12,000 FEET WITH NO
SIGNIFICANT WEATHER AND/OR OBSTRUCTIONS TO VISIBILITY.

* THESE STATIONS ARE NOT UNDER NWS QUALITY CONTROL. THEY ALSO MAY NOT
  REPORT WEATHER SUCH AS PRECIPITATION OR FOG.

ILZ005-006-012>014-019>023-021900-
NORTHEAST ILLINOIS

CITY           SKY/WX    TMP DP  RH WIND       PRES   REMARKS
OHARE          MOSUNNY   68  53  58 NE13G20   30.00F
6HR MIN TEMP:  55; 6HR MAX TEMP:  68;

MIDWAY         MOSUNNY   70  57  63 NE15      29.99F
6HR MIN TEMP:  61; 6HR MAX TEMP:  71;

AURORA         PTSUNNY   69  55  60 E13G22    30.00F
6HR MIN TEMP:  55; 6HR MAX TEMP:  69;

WAUKEGAN       NOT AVBL
DUPAGE AIRPORT MOSUNNY   68  55  63 NE10G21   29.99F
6HR MIN TEMP:  55; 6HR MAX TEMP:  69;

WHEELING       SUNNY     65  52  62 NE9       30.03F
6HR MIN TEMP:  55; 6HR MAX TEMP:  66;

NORTHERLY IS     N/A     62  56  80 N10         N/A
$$

WIZ051-052-058>065-066-070>072-021900-
SOUTHEAST WISCONSIN

CITY           SKY/WX    TMP DP  RH WIND       PRES   REMARKS
MILWAUKEE      MOSUNNY   63  50  62 NE9       30.05F
6HR MIN TEMP:  54; 6HR MAX TEMP:  63;

KENOSHA*       SUNNY     66  52  60 E10       30.03F
RACINE*        SUNNY     64  51  62 NE10      30.06F
WAUKESHA       SUNNY     64  46  52 NE9       30.05F
$$

INZ001>003-010>013-019-020-021900-
NORTHWEST INDIANA

CITY           SKY/WX    TMP DP  RH WIND       PRES   REMARKS
GARY*          PTSUNNY   66  59  77 N14       29.99F
MICHIGAN CITY* NOT AVBL
RENSSELAER*    NOT AVBL
$$

LMZ740>746-021900-
SOUTHERN LAKE MICHIGAN

STATION/POSITION TIME  SKY/WX   TEMP WIND        PRES    VSBY
                                AIR  DIR/SP/G
                 (UTC)          (F)  (DEG/KT/KT) (MB)    (MI)
HARRISON CRIB    1700            57   10/ 15/ 18   N/A
BURNHAM HARBOR   1700            62  360/  9/ 13   N/A
CALUMET HARBOR   1700            62   10/ 10/ 15   N/A
BURNS HARBOR     1700            62   10/ 13/ 16 1016.3S
MICHIGAN CITY    1700            61  360/ 14/ 16   N/A
$$

ABBREVIATIONS USED IN REMARKS
   TC - TEMPERATURE IN CELSIUS
  WCI - WIND CHILL INDEX
   HX - HEAT INDEX
  VSB - VISIBILITY
$$


USA.gov is the U.S. government's official web portal to all federal, state and local government web resources and services.